Temp
79 81 81 82 81 82 82 84 83 84 84 83 73 69 67 70 76 81 83 82 83 81 80 79 79 79 78 74 73 74 72 71 73 69 66 67 67 67 67 68 69 68 67
77 77 77 78 79 79 80 80 82 83 84 84 81 74 72 70 72 71 74 78 81 80 79 78 77 78 77 76 71 71 70 69 70 65 63 59 62 64 66 67 67 67 65
69 71 73 73 74 74 77 78 80 81 82 83 84 79 78 78 72 69 70 72 75 78 77 77 76 76 76 74 74 71 69 65 66 68 65 58 58 59 63 63 65 66 65
67 68 68 68 68 70 72 73 75 77 79 80 80 80 77 74 76 76 75 73 73 72 72 74 74 73 73 73 73 73 70 67 63 63 67 65 64 59 54 60 62 64 63
66 66 66 67 68 67 67 69 70 72 74 76 76 77 76 78 78 78 76 77 76 72 69 69 69 70 69 70 69 70 69 67 65 61 59 61 60 60 56 53 53 58 60
66 67 67 69 68 68 68 69 70 70 72 72 73 73 73 75 74 74 74 76 76 75 71 68 67 66 67 66 66 67 66 65 65 63 62 58 57 54 52 53 52 50 52
65 66 65 66 66 66 67 68 69 69 71 71 71 72 72 73 73 73 74 73 73 70 68 68 66 65 65 65 65 65 63 63 62 63 60 58 57 55 55 51 47 46 46
64 64 64 65 66 65 65 66 66 67 68 69 70 71 72 71 72 73 74 74 73 73 71 66 65 64 64 63 63 62 61 60 60 60 58 56 51 49 48 48 44 41 40
62 62 64 64 65 64 64 64 64 65 65 65 67 69 70 69 68 70 71 71 72 70 68 65 63 63 62 62 60 58 57 57 57 55 50 46 45 44 43 42 42 41 38
61 62 62 62 63 63 63 63 63 62 62 63 64 63 64 64 65 66 67 67 68 68 66 62 60 59 58 57 56 55 54 53 47 46 45 42 43 40 40 40 40 39 38
59 60 61 62 61 61 61 61 61 60 60 61 61 60 61 62 62 62 62 62 63 62 62 61 60 58 56 55 52 49 48 44 43 43 41 40 41 39 39 39 38 37 37
57 58 58 59 59 58 58 58 59 58 59 60 61 60 61 61 61 60 60 60 59 60 58 59 57 55 53 51 49 47 45 43 41 40 41 40 41 40 38 37 36 35 34
57 57 57 57 56 56 56 56 56 56 57 58 58 56 56 57 56 56 56 56 55 54 53 52 51 50 49 48 48 46 44 42 41 41 40 40 39 37 35 35 34 34 34
56 56 56 55 55 54 54 54 54 55 55 55 54 52 52 52 51 51 51 50 50 48 47 47 46 45 45 44 44 43 41 40 40 39 39 38 37 35 34 34 34 34 34
54 54 53 54 54 53 53 53 52 53 54 52 51 49 49 48 47 46 45 45 45 46 45 44 43 43 42 42 40 39 38 36 35 35 36 35 37 38 38 38 37 38 37
51 52 50 51 52 52 51 51 51 51 52 50 49 48 48 46 44 44 44 44 43 43 43 41 41 41 42 43 42 38 35 35 33 32 34 36 38 39 39 38 37 38 37
51 51 50 50 50 50 51 50 50 51 49 48 47 47 46 43 42 42 41 39 38 37 36 36 35 35 38 40 39 37 32 32 31 32 33 35 37 36 37 38 39 39 40
49 50 50 48 49 50 50 50 50 48 46 46 45 45 43 40 38 37 35 35 35 34 34 33 33 33 35 38 37 36 32 32 33 33 34 37 37 38 37 38 37 37 38
50 51 51 49 47 48 48 46 46 45 44 42 40 41 40 37 36 35 34 35 34 33 33 34 34 35 36 38 37 36 34 34 33 34 36 38 39 38 40 38 34 36 36
50 48 47 46 46 45 46 43 42 42 39 38 38 38 37 36 35 35 34 33 34 34 35 35 39 41 38 39 40 40 41 38 38 38 38 37 37 39 39 36 35 32 33
47 46 45 44 44 43 43 39 38 35 36 38 37 37 36 35 35 34 34 35 35 36 37 39 41 42 42 40 40 40 39 37 36 36 36 36 37 37 37 37 34 33 36
44 44 42 41 43 42 39 35 34 36 36 37 36 35 37 38 38 36 38 39 39 39 40 39 38 40 41 40 39 39 38 38 36 35 35 36 36 35 35 34 36 36 36
45 43 41 42 40 40 38 35 36 37 37 37 38 39 41 43 44 43 42 42 43 42 40 38 38 37 38 39 37 37 37 37 35 35 34 35 34 34 34 34 34 34 32
44 45 44 39 37 39 39 38 38 41 42 42 42 43 43 43 43 42 44 42 42 40 38 37 36 36 37 37 38 37 37 37 36 34 35 34 32 33 32 33 34 33 32
44 43 41 39 38 39 38 41 42 44 44 44 43 42 42 42 41 41 42 41 39 38 38 36 36 35 35 35 36 35 34 34 34 32 33 32 32 31 32 32 32 32 31
44 41 42 39 38 39 40 42 45 46 44 42 41 40 40 41 40 38 37 38 38 37 37 37 36 36 36 36 35 35 34 33 33 31 30 30 30 29 30 29 29 30 30
MSLP
1007.39 1007.68 1008.00 1008.27 1008.68 1008.91 1009.09 1009.17 1009.44 1009.81 1010.15 1010.35 1011.61 1012.38 1012.61 1012.84 1012.53 1012.25 1012.26 1012.65 1012.93 1013.38 1013.97 1014.21 1014.32 1014.45 1014.69 1015.16 1015.93 1016.19 1016.71 1017.04 1017.16 1017.75 1018.31 1018.66 1019.00 1019.16 1019.26 1019.31 1019.39 1019.82 1020.29
1007.25 1007.76 1008.39 1008.64 1008.77 1008.94 1009.12 1009.29 1009.25 1009.47 1009.70 1009.81 1010.26 1011.53 1012.12 1012.47 1012.59 1012.86 1012.71 1012.47 1012.46 1012.63 1012.83 1013.51 1013.95 1014.11 1014.29 1014.47 1015.23 1015.80 1016.22 1016.70 1016.95 1017.28 1017.98 1018.27 1018.67 1018.77 1018.90 1019.02 1019.15 1019.49 1020.01
1008.22 1008.52 1008.74 1008.87 1009.06 1009.05 1009.05 1009.11 1009.14 1009.28 1009.39 1009.58 1009.72 1010.43 1011.04 1011.18 1011.84 1012.26 1012.35 1012.50 1012.63 1012.37 1012.61 1012.68 1013.29 1013.76 1014.06 1014.13 1014.31 1014.92 1015.35 1016.01 1016.61 1016.64 1016.59 1017.24 1017.32 1017.84 1018.31 1018.78 1019.07 1019.24 1019.62
1009.04 1009.24 1009.36 1009.39 1009.54 1009.50 1009.61 1009.64 1009.56 1009.40 1009.50 1009.66 1009.63 1009.54 1009.82 1010.21 1010.73 1011.14 1011.57 1011.83 1011.98 1012.23 1012.49 1012.66 1012.89 1013.26 1013.64 1013.88 1013.93 1014.25 1014.61 1015.46 1015.79 1016.58 1016.24 1016.26 1016.80 1017.18 1018.22 1018.61 1018.85 1019.10 1019.32
1009.31 1009.60 1009.83 1009.87 1010.08 1010.23 1010.15 1010.07 1010.03 1009.98 1009.95 1009.92 1009.86 1009.68 1009.62 1009.70 1010.09 1010.47 1010.75 1010.88 1011.17 1011.53 1012.08 1012.54 1012.80 1013.01 1013.18 1013.47 1013.72 1014.01 1014.27 1014.83 1015.26 1015.50 1016.06 1016.52 1016.93 1017.10 1017.47 1018.08 1018.67 1019.05 1019.22
1009.60 1009.84 1010.08 1010.10 1010.24 1010.47 1010.46 1010.33 1010.07 1010.06 1010.10 1010.01 1010.00 1009.96 1009.83 1009.74 1009.90 1010.12 1010.18 1010.24 1010.45 1010.90 1011.50 1012.09 1012.58 1012.89 1012.88 1013.14 1013.31 1013.49 1014.10 1014.49 1014.72 1015.14 1015.40 1015.62 1016.10 1016.76 1017.34 1017.88 1018.34 1018.70 1019.34
1009.82 1010.07 1010.29 1010.50 1010.72 1010.76 1010.71 1010.59 1010.45 1010.24 1010.21 1010.12 1010.17 1010.01 1010.00 1009.94 1009.85 1009.92 1009.95 1010.12 1010.27 1010.68 1011.15 1011.66 1012.11 1012.54 1012.82 1012.95 1013.16 1013.37 1013.49 1013.90 1014.22 1014.45 1014.92 1015.45 1015.85 1016.21 1016.79 1017.47 1018.35 1018.95 1019.96
1010.12 1010.42 1010.64 1010.75 1010.83 1011.02 1011.06 1011.03 1010.89 1010.75 1010.57 1010.50 1010.35 1010.20 1010.22 1010.11 1010.04 1009.99 1009.99 1010.01 1010.16 1010.43 1010.83 1011.32 1011.76 1012.08 1012.31 1012.57 1012.83 1013.08 1013.29 1013.67 1013.96 1014.44 1014.93 1015.52 1016.23 1016.84 1017.10 1017.70 1018.54 1019.19 1019.91
1010.49 1010.81 1010.87 1010.95 1011.11 1011.38 1011.50 1011.58 1011.39 1011.30 1011.20 1011.05 1010.81 1010.56 1010.42 1010.66 1010.62 1010.51 1010.37 1010.41 1010.41 1010.55 1010.93 1011.41 1011.59 1011.94 1012.18 1012.35 1012.55 1012.80 1013.14 1013.55 1013.93 1014.32 1015.02 1016.03 1017.08 1017.60 1017.81 1017.67 1018.13 1020.04 1020.55
1010.74 1010.98 1011.15 1011.38 1011.57 1011.74 1011.93 1011.89 1011.78 1011.80 1011.80 1011.67 1011.50 1011.48 1011.47 1011.38 1011.25 1011.02 1010.93 1010.95 1010.93 1011.01 1011.28 1011.79 1011.99 1012.20 1012.49 1012.71 1012.88 1013.10 1013.33 1013.79 1014.59 1015.14 1015.68 1016.65 1017.34 1018.00 1018.51 1018.73 1018.44 1018.69 1020.38
1010.94 1011.33 1011.52 1011.68 1012.06 1012.23 1012.36 1012.40 1012.36 1012.26 1012.27 1012.16 1012.10 1012.08 1011.82 1011.80 1011.69 1011.65 1011.67 1011.70 1011.72 1011.74 1011.85 1012.05 1012.30 1012.60 1012.80 1012.99 1013.32 1013.77 1014.15 1014.70 1015.34 1015.92 1016.58 1017.26 1017.76 1018.17 1018.89 1019.61 1020.21 1019.60 1020.41
1011.35 1011.68 1011.85 1012.08 1012.36 1012.60 1012.79 1012.90 1012.84 1012.78 1012.82 1012.64 1012.40 1012.33 1012.24 1012.14 1012.07 1012.17 1012.36 1012.40 1012.47 1012.51 1012.66 1012.57 1012.72 1012.98 1013.27 1013.58 1013.88 1014.29 1014.88 1015.41 1016.08 1016.63 1017.05 1017.63 1018.11 1018.88 1019.04 1019.44 1020.57 1020.52 1020.46
1011.41 1011.74 1012.09 1012.46 1012.77 1013.09 1013.36 1013.47 1013.41 1013.36 1013.33 1013.16 1013.08 1013.15 1013.04 1013.00 1013.09 1013.21 1013.34 1013.33 1013.35 1013.55 1013.71 1013.81 1013.94 1014.11 1014.34 1014.54 1014.84 1015.14 1015.55 1016.03 1016.52 1017.19 1017.53 1018.13 1018.39 1018.88 1019.87 1019.74 1021.01 1020.65 1021.15
1011.53 1011.85 1012.30 1012.83 1013.18 1013.60 1013.87 1013.92 1014.02 1013.97 1013.84 1013.85 1013.91 1014.06 1014.00 1014.09 1014.19 1014.22 1014.38 1014.57 1014.66 1014.58 1014.69 1014.87 1015.08 1015.26 1015.39 1015.58 1015.88 1016.28 1016.61 1016.98 1017.51 1018.04 1018.82 1019.01 1018.88 1019.13 1020.08 1020.56 1020.72 1020.91 1021.23
1011.69 1012.21 1012.73 1013.11 1013.42 1013.86 1014.04 1014.25 1014.47 1014.48 1014.29 1014.41 1014.61 1014.98 1015.09 1015.23 1015.21 1015.28 1015.35 1015.57 1015.68 1015.80 1015.84 1015.99 1015.98 1016.24 1016.56 1016.94 1017.08 1017.32 1017.92 1018.16 1018.46 1018.76 1019.77 1020.33 1019.85 1019.84 1019.95 1020.24 1020.53 1020.63 1020.83
1012.16 1012.75 1013.17 1013.42 1013.82 1014.10 1014.40 1014.82 1015.00 1014.94 1014.92 1015.13 1015.19 1015.48 1015.78 1016.01 1016.13 1016.22 1015.95 1016.17 1016.60 1016.66 1016.78 1016.98 1016.93 1017.22 1017.41 1017.73 1017.90 1018.34 1018.72 1019.00 1019.53 1019.87 1020.43 1020.66 1020.49 1020.14 1020.15 1020.43 1020.75 1020.85 1020.67
1012.25 1012.92 1013.63 1014.04 1014.40 1014.63 1014.85 1015.11 1015.14 1015.35 1015.59 1015.63 1015.86 1016.21 1016.62 1016.72 1016.78 1017.17 1017.31 1017.38 1017.79 1018.00 1017.97 1018.11 1018.15 1018.50 1018.81 1018.86 1018.91 1019.23 1020.02 1019.90 1020.01 1020.37 1020.96 1020.76 1021.09 1020.69 1020.64 1020.67 1020.72 1020.73 1020.78
1012.77 1013.39 1013.89 1014.36 1014.71 1015.07 1015.24 1015.44 1015.52 1015.86 1016.20 1016.48 1016.76 1016.98 1017.24 1017.51 1017.78 1018.16 1018.39 1018.49 1018.61 1019.03 1019.17 1019.39 1019.52 1019.79 1019.98 1019.83 1019.73 1019.92 1020.50 1020.81 1020.91 1021.31 1020.87 1021.48 1021.25 1020.83 1020.73 1020.68 1020.58 1020.65 1020.62
1013.09 1013.56 1014.05 1014.66 1015.23 1015.51 1015.69 1015.89 1016.23 1016.57 1016.86 1017.34 1017.68 1017.81 1018.05 1018.33 1018.54 1018.75 1018.92 1019.29 1019.55 1019.91 1020.07 1020.13 1020.25 1020.31 1020.38 1020.34 1020.41 1020.62 1021.07 1021.17 1021.35 1021.35 1021.48 1021.32 1020.98 1021.03 1020.80 1020.68 1020.73 1020.55 1020.51
1013.48 1014.11 1014.75 1015.31 1015.60 1015.99 1016.22 1016.59 1016.94 1017.15 1017.58 1018.08 1018.35 1018.61 1018.76 1018.84 1019.06 1019.30 1019.57 1020.09 1020.25 1020.43 1020.56 1020.43 1020.36 1020.41 1020.51 1020.66 1020.67 1020.67 1020.66 1020.78 1020.87 1021.09 1021.20 1021.38 1021.31 1021.10 1021.01 1020.94 1020.69 1020.74 1020.82
1014.09 1014.79 1015.30 1015.43 1015.94 1016.49 1016.84 1017.24 1017.67 1017.96 1018.26 1018.61 1018.95 1019.13 1019.31 1019.50 1019.62 1019.86 1020.17 1020.39 1020.53 1020.64 1020.57 1020.42 1020.49 1020.48 1020.60 1020.86 1020.93 1020.94 1020.93 1021.02 1021.09 1021.20 1021.26 1021.34 1021.42 1021.27 1021.12 1021.05 1021.08 1021.01 1020.92
1014.62 1015.06 1015.40 1015.95 1016.48 1016.89 1017.38 1017.80 1018.07 1018.44 1018.81 1019.11 1019.28 1019.47 1019.61 1019.66 1019.92 1020.13 1020.30 1020.39 1020.40 1020.45 1020.46 1020.56 1020.75 1020.89 1020.97 1021.10 1021.25 1021.35 1021.44 1021.45 1021.30 1021.28 1021.30 1021.31 1021.44 1021.40 1021.37 1021.32 1021.10 1021.03 1021.04
1014.50 1015.29 1015.89 1016.28 1016.86 1017.26 1017.67 1017.89 1018.32 1018.70 1019.09 1019.34 1019.38 1019.43 1019.41 1019.43 1019.56 1019.76 1019.90 1019.99 1020.05 1020.27 1020.48 1020.70 1020.83 1021.11 1021.29 1021.36 1021.63 1021.67 1021.64 1021.59 1021.53 1021.52 1021.62 1021.62 1021.55 1021.48 1021.37 1021.35 1021.29 1021.21 1021.05
1014.67 1015.20 1015.71 1016.46 1017.05 1017.43 1017.83 1018.18 1018.46 1018.58 1018.66 1018.95 1019.06 1019.08 1019.26 1019.54 1019.80 1019.97 1020.00 1020.08 1020.31 1020.52 1020.74 1020.96 1021.10 1021.28 1021.37 1021.45 1021.50 1021.55 1021.45 1021.53 1021.50 1021.63 1021.52 1021.61 1021.62 1021.48 1021.42 1021.25 1021.09 1021.08 1021.10
1014.67 1015.26 1015.70 1016.35 1016.93 1017.37 1017.80 1018.07 1018.16 1018.18 1018.28 1018.60 1018.95 1019.29 1019.56 1019.65 1019.87 1020.10 1020.25 1020.42 1021.00 1021.03 1021.05 1021.34 1021.46 1021.52 1021.53 1021.74 1021.92 1021.97 1021.91 1021.90 1021.85 1021.87 1021.58 1021.42 1021.32 1021.22 1021.11 1021.09 1021.02 1020.93 1020.91
1014.46 1015.09 1015.50 1016.16 1016.75 1017.20 1017.48 1017.70 1017.84 1017.83 1018.17 1018.60 1019.04 1019.41 1019.70 1019.85 1020.00 1020.41 1020.94 1021.34 1021.56 1021.71 1021.81 1021.92 1021.89 1021.93 1022.04 1022.10 1022.21 1022.22 1022.18 1022.19 1022.04 1021.86 1021.62 1021.46 1021.41 1021.35 1021.26 1021.21 1021.11 1021.02 1021.00
Wind_Speed
11 11 11 9 10 11 13 13 13 13 10 9 8 7 7 7 8 8 12 12 11 13 12 9 11 10 10 11 10 9 10 7 7 6 4 3 5 6 5 6 6 7 7
12 8 11 11 12 12 13 13 13 14 12 9 9 8 8 7 7 6 8 12 13 13 13 12 11 12 10 12 13 12 8 7 8 6 5 5 6 7 8 7 6 8 6
8 9 9 9 9 10 11 11 12 13 13 11 8 9 9 7 7 7 9 12 14 12 13 13 11 10 10 10 12 13 14 10 9 11 5 4 5 5 6 8 7 8 6
4 1 1 2 1 4 5 8 9 10 10 11 11 13 10 10 8 8 8 10 11 13 11 12 12 12 9 11 11 11 11 10 10 7 9 1 2 4 3 3 7 7 7
3 5 5 5 5 5 4 3 5 9 11 10 10 9 11 7 7 7 11 11 10 11 10 10 9 11 8 11 11 11 12 11 8 8 3 7 4 4 2 4 4 4 5
5 5 5 5 6 6 5 5 3 2 5 8 10 11 11 10 8 8 7 7 6 6 7 9 9 9 9 10 11 11 11 11 10 8 7 7 6 7 4 3 4 5 4
5 5 4 4 4 6 6 5 5 4 4 2 6 9 10 11 10 9 7 8 6 4 5 7 8 8 9 8 8 10 11 13 11 11 9 6 4 1 3 4 2 3 2
4 4 4 4 4 5 6 7 7 6 6 5 4 4 5 5 6 8 7 6 6 5 6 5 7 8 9 9 8 7 7 9 10 12 7 3 2 2 2 1 2 2 2
3 3 4 5 5 5 6 6 7 6 7 7 5 5 3 3 4 6 7 5 7 4 5 3 4 4 6 7 7 6 6 5 6 4 5 6 4 4 3 5 4 1 2
1 3 4 4 5 5 6 6 7 7 7 7 7 6 6 5 6 5 4 6 5 6 5 5 4 2 2 2 2 1 1 4 4 4 8 7 6 6 4 2 5 6 3
2 4 4 4 5 5 6 6 7 7 7 7 6 5 4 4 3 3 4 4 4 4 4 4 4 3 1 1 4 5 6 8 7 7 8 9 9 7 4 5 3 4 2
1 2 3 4 4 5 6 7 8 8 7 6 5 7 7 7 7 8 8 7 7 7 7 5 3 3 3 4 5 6 7 8 8 8 9 10 7 8 6 5 3 4 5
2 2 2 3 4 5 6 6 7 8 7 7 7 8 9 9 10 10 10 10 9 9 10 9 8 7 6 6 6 7 8 9 10 8 9 8 8 9 4 7 4 5 4
4 3 4 3 4 4 5 6 6 6 7 7 8 8 9 9 10 10 10 10 10 10 10 11 10 9 9 9 9 10 10 11 10 10 8 6 7 9 7 5 5 5 4
4 4 4 3 3 4 5 5 6 6 6 7 7 8 8 8 9 10 10 10 11 11 11 10 11 10 9 7 9 10 10 11 11 11 8 5 9 12 8 5 5 5 2
5 5 4 3 2 4 5 4 4 5 6 6 8 8 7 7 8 8 10 12 11 11 12 11 12 11 8 18 19 13 9 10 9 9 5 4 7 8 8 6 5 1 2
6 5 6 5 3 3 4 4 5 5 6 6 7 7 6 7 9 9 10 11 11 11 11 11 12 12 11 20 21 20 9 9 9 6 2 4 2 3 2 2 1 1 2
6 6 5 5 5 4 4 4 5 6 5 6 6 6 8 9 10 9 10 10 9 9 9 10 11 10 10 19 19 16 7 5 7 4 4 0 1 3 2 2 2 1 3
4 5 5 5 5 3 4 5 4 5 6 6 5 7 9 9 9 9 9 9 9 9 8 7 9 10 9 13 12 9 6 5 4 2 2 2 0 3 4 4 1 3 3
6 6 6 6 5 4 4 5 4 6 6 6 6 7 8 10 9 8 9 7 7 7 7 6 7 10 8 10 8 3 3 3 2 3 3 5 5 5 7 5 5 3 3
7 7 6 5 5 4 5 6 6 6 6 7 7 7 7 9 8 8 6 6 6 5 5 6 6 7 8 7 8 9 4 3 2 2 2 1 6 7 7 7 4 4 6
8 7 6 4 5 6 7 6 6 6 6 6 7 7 7 7 7 8 7 7 6 5 5 5 5 4 6 7 7 7 7 5 3 3 2 3 8 7 6 5 5 7 7
7 6 7 8 6 7 8 7 6 7 7 9 9 8 8 8 7 6 6 5 4 3 4 2 3 3 1 3 4 5 6 4 5 4 5 7 7 6 5 4 5 6 3
8 8 9 8 8 8 8 8 9 10 10 10 9 8 7 7 6 3 3 3 3 3 2 2 2 2 1 1 1 1 1 1 3 0 3 4 5 5 4 4 3 2 2
9 8 8 9 10 10 10 10 10 10 9 9 8 7 5 6 5 4 4 4 6 5 2 2 2 2 1 3 4 5 5 5 5 6 3 3 2 2 2 2 2 2 2
10 10 10 11 11 10 10 9 9 9 9 8 6 5 4 5 4 5 6 10 8 7 7 5 4 1 2 2 4 5 6 6 6 4 3 3 2 3 3 3 4 3 4
Wind_Direction
242 239 243 255 246 242 243 237 232 226 223 218 192 212 213 225 245 238 224 223 221 213 218 223 225 216 216 190 215 212 209 217 205 183 191 212 219 215 223 218 203 203 193
248 252 249 247 245 236 233 238 240 229 227 227 190 207 209 224 229 223 243 249 225 218 211 217 225 222 217 207 195 216 201 208 204 186 175 201 197 221 214 212 212 201 187
272 267 271 261 257 252 247 244 235 237 235 238 235 193 222 211 198 214 221 229 243 241 223 218 218 230 227 220 206 201 202 202 196 207 168 200 225 149 187 210 207 212 192
189 153 358 36 358 297 296 277 275 260 243 243 245 241 217 224 226 230 227 231 229 232 237 230 221 222 222 231 223 210 205 197 199 192 234 189 337 193 162 201 213 214 209
103 99 84 74 67 56 35 308 262 253 249 250 248 251 249 243 237 246 244 240 220 208 221 229 243 234 221 229 227 225 212 211 204 203 164 222 215 270 292 159 182 202 212
110 102 86 69 66 54 41 36 39 346 263 251 244 247 257 244 240 242 253 249 239 228 207 220 228 237 240 221 227 223 220 219 223 199 206 197 193 204 191 233 158 172 184
93 77 67 51 45 38 29 26 20 38 13 316 250 246 250 253 251 252 252 253 254 242 222 226 222 226 230 238 225 225 205 215 221 218 214 205 226 136 177 156 160 148 103
82 53 41 26 35 21 19 9 10 15 10 354 344 312 286 273 274 262 271 275 263 259 200 200 218 223 221 221 220 224 218 215 226 226 206 188 96 65 89 88 114 152 140
59 26 17 22 18 14 21 17 9 12 12 359 345 328 324 298 284 290 289 284 292 315 359 316 243 246 244 227 212 214 216 219 220 201 107 110 94 77 75 96 91 130 190
69 14 7 16 18 25 16 24 22 20 15 9 15 0 355 353 349 333 324 328 317 326 357 332 5 6 333 286 206 169 122 127 87 111 117 115 116 101 97 18 113 103 133
20 5 6 38 46 32 28 26 23 18 11 13 25 21 22 25 17 23 16 5 340 354 317 303 293 292 260 144 88 78 91 96 100 99 110 109 113 107 104 99 56 92 149
20 11 53 58 59 41 31 27 24 24 15 6 18 29 28 32 36 36 30 19 20 20 8 9 21 52 79 94 115 124 121 123 120 120 119 119 118 113 106 129 76 104 46
183 153 122 87 76 58 40 26 27 26 22 19 31 33 34 40 38 37 32 37 41 44 43 43 43 47 55 65 85 98 99 102 110 117 119 124 124 110 111 90 131 86 89
175 165 149 119 90 72 45 36 35 27 37 44 45 44 41 42 45 45 45 45 48 57 60 61 63 62 66 74 80 85 89 89 82 70 61 75 98 109 104 107 105 113 132
194 171 180 138 122 88 62 47 37 32 38 52 57 51 52 54 60 59 62 59 57 59 67 72 74 72 71 70 71 76 77 78 81 81 65 68 98 109 120 121 150 144 149
186 190 163 133 97 87 77 68 57 50 50 57 63 56 57 65 72 72 78 76 74 78 78 70 69 70 75 82 84 77 83 80 67 70 74 61 71 79 85 71 49 111 199
185 180 179 151 125 107 108 93 73 63 59 62 65 69 75 71 66 65 74 78 76 67 61 66 69 62 61 78 77 73 56 65 82 69 117 82 91 99 137 191 250 273 264
171 172 162 147 133 142 113 103 82 78 75 68 75 84 86 80 79 82 74 70 69 70 72 69 68 73 74 80 81 79 71 72 81 86 63 176 29 50 347 274 235 227 245
169 143 136 129 134 131 101 97 103 104 93 88 85 80 95 93 89 75 77 77 79 75 79 77 85 89 87 85 88 88 86 81 79 91 171 231 298 51 325 322 89 295 325
143 138 135 141 139 114 125 124 121 99 87 89 95 97 102 103 90 86 81 83 85 88 90 90 88 88 87 81 76 97 164 141 115 107 94 55 10 355 351 333 331 344 317
136 141 153 140 122 132 131 122 114 100 102 104 104 101 94 103 92 87 83 87 93 103 110 101 99 85 85 82 63 42 41 21 24 10 23 53 2 350 343 339 321 333 316
153 155 134 124 128 133 132 126 114 102 104 110 108 102 106 109 112 117 127 126 127 119 106 96 87 67 78 49 59 42 30 16 358 352 354 359 350 334 324 317 318 319 323
154 156 161 146 132 143 148 133 129 129 127 126 126 125 129 132 129 120 123 118 112 106 94 84 88 88 64 87 59 38 15 22 347 5 358 322 316 305 281 250 309 311 282
171 177 161 156 155 154 147 143 146 153 150 142 135 129 122 119 111 87 94 108 93 81 88 94 81 107 129 35 327 321 310 244 311 208 299 311 290 277 286 286 279 267 304
171 181 175 172 165 159 155 158 159 158 153 135 133 127 132 124 116 76 42 79 45 21 66 60 35 357 73 43 6 355 345 354 337 327 299 290 302 303 289 295 287 290 302
172 182 179 166 164 163 160 162 170 164 149 144 138 142 142 141 134 132 101 69 87 81 76 64 32 100 27 7 356 332 333 323 332 306 294 311 308 309 329 323 328 331 321